Location: RapidEye Observatory
(35.3653°N, 79.2300°W)
Time: 11:07:30
(UTC-05:00)

Amateur Radio Satellites - All Passes

Search period start: 23 January 2018 10:37
Search period end: 24 January 2018 10:37
Location: RapidEye Observatory, 35.3653°N, 79.2300°W

Satellite Date Start Highest point End Downlink Frequencies (MHz)
Time Altitude Azimuth
AO-85 23 Jan 10:37:58 10:41:19 28° 112° (ESE) 10:44:51 145.980
BEESAT 2 23 Jan 10:53:28 10:56:27 20° 308° (NW) 10:59:27 435.950
POLYITAN 1 23 Jan 10:56:29 11:00:09 29° 71° (ENE) 11:03:51 437.675
RS-15 23 Jan 11:03:48 11:12:18 21° 332° (NNW) 11:20:42 29.354- 29.394
NANOSAT C BR1 23 Jan 11:09:15 11:13:06 36° 72° (ENE) 11:16:58 145.865
LO-87 23 Jan 11:09:44 11:13:08 37° 98° (E) 11:16:30 145.935 - 145.965
ESTCUBE 1 23 Jan 11:13:10 11:17:12 32° 98° (E) 11:21:13 437.505/2401.250
YUBILEINY 23 Jan 11:14:48 11:22:54 45° 272° (W) 11:30:58 435.215
AIST 2D 23 Jan 11:15:31 11:18:44 34° 262° (W) 11:21:58 435.315
O/OREOS (USA 219) 23 Jan 11:15:55 11:19:05 19° 259° (W) 11:22:14 437.305
JUGNU 23 Jan 11:21:27 11:25:03 17° 182° (S) 11:28:40 437.505
QB50P2 23 Jan 11:25:49 11:30:02 78° 76° (ENE) 11:34:18 145.880/145.840
SRMSAT 23 Jan 11:48:05 11:50:33 13° 168° (SSE) 11:53:00 437.500
DUCHIFAT 1 23 Jan 11:50:54 11:55:05 81° 258° (WSW) 11:59:20 145.980
EO-79 23 Jan 11:55:51 11:59:57 50° 260° (W) 12:04:05 145.935-145.965
SPROUT 23 Jan 12:12:04 12:15:58 33° 98° (E) 12:19:50 437.525
AO-85 23 Jan 12:18:38 12:21:42 21° 310° (NW) 12:24:55 145.980
SO-50 23 Jan 12:27:52 12:29:21 11° 44° (NE) 12:30:50 436.795
POLYITAN 1 23 Jan 12:32:52 12:35:55 19° 266° (W) 12:38:58 437.675
VELOX 1 23 Jan 12:36:40 12:40:38 32° 98° (E) 12:44:35 145.980
BUGSAT 1 23 Jan 12:41:15 12:45:18 81° 78° (ENE) 12:49:27 437.445
LO-87 23 Jan 12:45:01 12:46:07 11° 292° (WNW) 12:47:12 145.935 - 145.965
Oscar 19 23 Jan 12:45:51 12:50:53 54° 73° (ENE) 12:55:58 437.125/150
NANOSAT C BR1 23 Jan 12:46:23 12:48:52 15° 267° (W) 12:51:22 145.865
AO-91 23 Jan 12:48:48 12:52:04 52° 75° (ENE) 12:55:27 145.960
ESTCUBE 1 23 Jan 12:50:32 12:53:44 20° 292° (WNW) 12:56:56 437.505/2401.250
Gurwin Techsat 1B 23 Jan 12:54:14 12:59:19 49° 72° (ENE) 13:04:25 435.225
JUGNU 23 Jan 13:11:09 13:13:17 12° 192° (SSW) 13:15:25 437.505
RS-15 23 Jan 13:26:11 13:31:51 14° 9° (N) 13:37:25 29.354- 29.394
SRMSAT 23 Jan 13:35:10 13:38:57 17° 178° (S) 13:42:45 437.500
SPROUT 23 Jan 13:48:38 13:51:33 18° 292° (WNW) 13:54:28 437.525
ITAMSAT 1 23 Jan 14:01:20 14:03:43 13° 63° (ENE) 14:06:07 435.822/435.867
UKube-1 23 Jan 14:01:56 14:05:45 30° 98° (E) 14:09:33 .
SO-50 23 Jan 14:05:42 14:10:27 88° 61° (ENE) 14:15:14 436.795
VELOX 1 23 Jan 14:13:41 14:16:48 19° 292° (WNW) 14:19:55 145.980
AO-7 23 Jan 14:13:46 14:21:42 50° 66° (ENE) 14:29:40 .
DX 1 23 Jan 14:19:35 14:23:57 90° 98° (E) 14:28:18 434.975-435.025
Oscar 19 23 Jan 14:27:32 14:30:28 15° 267° (W) 14:33:26 437.125/150
Gurwin Techsat 1B 23 Jan 14:35:59 14:39:28 18° 267° (W) 14:42:58 435.225
50 SAT 23 Jan 14:42:28 14:45:17 32° 286° (WNW) 14:48:06 437.505
ITUPSAT 1 23 Jan 14:52:54 14:56:05 17° 94° (E) 14:59:16 437.325
MOZHAYETS 4 23 Jan 14:55:18 14:59:32 35° 98° (E) 15:03:45
NO-84 23 Jan 15:00:17 15:02:53 21° 127° (SE) 15:05:22 435.350 FM
CUBESAT XI-V 23 Jan 15:08:59 15:09:51 10° 91° (E) 15:10:42 437.345
SRMSAT 23 Jan 15:24:01 15:27:23 15° 188° (S) 15:30:44 437.500
BEESAT 23 Jan 15:29:24 15:34:00 45° 100° (E) 15:38:33 436.000
ITAMSAT 1 23 Jan 15:37:27 15:42:34 67° 258° (WSW) 15:47:43 435.822/435.867
UKube-1 23 Jan 15:38:26 15:41:31 20° 292° (WNW) 15:44:36 .
RS-15 23 Jan 15:39:14 15:49:39 35° 43° (NE) 15:59:33 29.354- 29.394
M-CUBED/EXP-1 PRIME 23 Jan 15:56:02 16:00:14 50° 70° (ENE) 16:04:10 437.505
AO-7 23 Jan 16:07:20 16:14:34 33° 262° (W) 16:21:54 .
DOVE 4 23 Jan 16:07:46 16:11:58 57° 75° (ENE) 16:16:03 437.250
ITUPSAT 1 23 Jan 16:29:31 16:34:01 41° 289° (WNW) 16:38:30 437.325
MOZHAYETS 4 23 Jan 16:33:08 16:36:23 19° 292° (WNW) 16:39:37
NO-84 23 Jan 16:37:21 16:39:58 23° 319° (NW) 16:42:27 435.350 FM
CUBESAT XI-V 23 Jan 16:43:01 16:47:33 60° 285° (WNW) 16:52:03 437.345
NUDT-PHONESAT 23 Jan 16:47:02 16:47:51 11° 67° (ENE) 16:48:40 437.300
XW-2F 23 Jan 16:47:04 16:49:28 16° 69° (ENE) 16:51:52 145.980 - 146.000
HO-68 23 Jan 16:54:49 16:59:22 18° 59° (ENE) 17:03:55 435.675
XW-2D 23 Jan 16:58:34 17:01:44 25° 72° (ENE) 17:04:56 145.860 - 145.880
BEESAT 23 Jan 17:08:20 17:11:21 17° 294° (WNW) 17:14:23 436.000
XW-2B 23 Jan 17:15:49 17:19:25 40° 74° (ENE) 17:23:01 145.730 - 145.750
PCSat 23 Jan 17:20:04 17:23:02 15° 48° (NE) 17:25:58 145.827
CUTE-I 23 Jan 17:32:00 17:37:11 57° 73° (ENE) 17:42:22 437.470
M-CUBED/EXP-1 PRIME 23 Jan 17:33:03 17:34:41 12° 261° (W) 17:36:17 437.505
SEEDS 23 Jan 17:36:18 17:37:33 11° 66° (ENE) 17:38:48 437.485
KKS-1 23 Jan 17:38:52 17:43:20 71° 102° (ESE) 17:47:46 437.445
XW-2C 23 Jan 17:46:06 17:49:56 73° 259° (W) 17:53:45 145.795 - 145.815
STARS 23 Jan 17:46:23 17:50:19 30° 98° (E) 17:54:12 437.465
LilacSat-2 23 Jan 17:47:54 17:51:43 62° 260° (W) 17:55:32 437.200
RS-15 23 Jan 17:51:30 18:02:57 69° 246° (WSW) 18:13:49 29.354- 29.394
CUTE 1.7 + AOD 2 23 Jan 17:52:10 17:55:54 30° 72° (ENE) 17:59:39 437.475
nSIGHT-1 23 Jan 18:02:31 18:04:17 14° 128° (SE) 18:06:03 .
KAITUO 1B 23 Jan 18:12:24 18:16:02 46° 261° (W) 18:19:39 145.475/437.950
BEESAT 3 23 Jan 18:16:49 18:20:44 87° 242° (WSW) 18:24:33 437.485
NUDT-PHONESAT 23 Jan 18:17:42 18:21:14 42° 261° (W) 18:24:48 437.300
XW-2F 23 Jan 18:20:01 18:23:18 28° 263° (W) 18:26:36 145.980 - 146.000
ISS 23 Jan 18:27:48 18:30:05 18° 129° (SE) 18:32:22 437.550
XW-2D 23 Jan 18:33:17 18:35:51 17° 265° (W) 18:38:27 145.860 - 145.880
UWE-3 23 Jan 18:34:41 18:38:39 33° 71° (ENE) 18:42:43 435.000/436.395/437.385
CUBEBUG 2 23 Jan 18:35:28 18:39:47 63° 76° (ENE) 18:44:17 437.445
HO-68 23 Jan 18:39:07 18:46:16 78° 256° (WSW) 18:53:27 435.675
AAUSAT CUBESAT 2 23 Jan 18:41:19 18:44:45 26° 71° (ENE) 18:48:10 437.432
ZACube-1 23 Jan 18:51:37 18:55:19 26° 70° (ENE) 18:59:03 437.345
XW-2B 23 Jan 18:52:45 18:53:43 11° 268° (W) 18:54:42 145.730 - 145.750
AO-73 23 Jan 18:56:25 19:00:05 25° 70° (ENE) 19:03:49 145.935
PCSat 23 Jan 19:01:36 19:07:02 79° 246° (WSW) 19:12:26 145.827
SEEDS 23 Jan 19:08:37 19:12:44 53° 260° (W) 19:16:51 437.485
AO-85 23 Jan 19:11:25 19:14:40 17° 48° (NE) 19:18:01 145.980
BEESAT 2 23 Jan 19:12:23 19:16:23 86° 243° (WSW) 19:20:19 435.950
CUTE-I 23 Jan 19:14:34 19:17:31 15° 267° (W) 19:20:28 437.470
STRAND 1 23 Jan 19:17:10 19:22:00 40° 99° (E) 19:26:48 437.568
XW-2A 23 Jan 19:22:47 19:26:11 73° 77° (ENE) 19:29:36 145.665 - 145.685
STARS 23 Jan 19:23:08 19:26:24 21° 292° (WNW) 19:29:40 437.465
Oscar 11 23 Jan 19:25:58 19:29:50 32° 72° (ENE) 19:33:44 .
CUTE 1.7 + AOD 2 23 Jan 19:28:45 19:31:44 18° 266° (W) 19:34:43 437.475
nSIGHT-1 23 Jan 19:37:10 19:40:10 40° 322° (NW) 19:43:11 .
ISS 23 Jan 20:03:20 20:06:21 34° 323° (NW) 20:09:23 437.550
RS-15 23 Jan 20:10:24 20:12:56 11° 265° (W) 20:15:27 29.354- 29.394
UWE-3 23 Jan 20:11:57 20:15:08 19° 267° (W) 20:18:23 435.000/436.395/437.385
AAUSAT CUBESAT 2 23 Jan 20:17:03 20:20:07 20° 265° (W) 20:23:12 437.432
DELFI C3 23 Jan 20:23:14 20:26:19 23° 71° (ENE) 20:29:26 145.870
Max Valier Satellite 23 Jan 20:23:41 20:25:42 14° 69° (ENE) 20:27:42 145.860
ZACube-1 23 Jan 20:27:48 20:31:27 25° 265° (W) 20:35:11 437.345
FO-29 23 Jan 20:30:58 20:36:11 86° 105° (ESE) 20:41:35 435.910
AO-73 23 Jan 20:32:31 20:36:11 25° 265° (W) 20:39:56 145.935
EO-88 23 Jan 20:35:18 20:36:47 12° 68° (ENE) 20:38:15 145.990 - 145.960
AO-85 23 Jan 20:50:27 20:55:29 66° 243° (WSW) 21:00:45 145.980
STRAND 1 23 Jan 20:57:03 21:00:51 21° 293° (WNW) 21:04:40 437.568
Oscar 11 23 Jan 21:03:01 21:06:00 18° 266° (W) 21:09:00 .
TIGRISAT 23 Jan 21:09:35 21:13:04 20° 94° (E) 21:16:30 435.000
UNISAT 6 23 Jan 21:25:09 21:29:25 33° 97° (E) 21:33:36 437.425
Max Valier Satellite 23 Jan 21:55:51 21:59:11 31° 263° (W) 22:02:32 145.860
DELFI C3 23 Jan 21:58:02 22:00:57 20° 265° (W) 22:03:54 145.870
EO-88 23 Jan 22:06:41 22:10:02 34° 262° (W) 22:13:24 145.990 - 145.960
ESTCUBE 1 23 Jan 22:10:00 22:13:26 22° 69° (ENE) 22:16:51 437.505/2401.250
PRISM 23 Jan 22:13:09 22:16:09 20° 96° (E) 22:19:09 437.425
YUBILEINY 23 Jan 22:14:57 22:23:07 44° 88° (E) 22:31:16 435.215
AIST 2D 23 Jan 22:43:31 22:46:01 18° 95° (E) 22:48:30 435.315
TIGRISAT 23 Jan 22:45:31 22:49:45 34° 289° (WNW) 22:53:56 435.000
UNISAT 6 23 Jan 23:02:19 23:05:51 21° 292° (WNW) 23:09:21 437.425
SPROUT 23 Jan 23:03:00 23:05:48 17° 68° (ENE) 23:08:37 437.525
NO-84 23 Jan 23:11:29 23:14:05 31° 43° (NE) 23:16:46 435.350 FM
QB50P2 23 Jan 23:14:50 23:17:28 16° 94° (E) 23:20:06 145.880/145.840
LO-87 23 Jan 23:15:13 23:18:36 41° 262° (W) 23:22:00 145.935 - 145.965
VELOX 1 23 Jan 23:31:21 23:34:33 20° 68° (ENE) 23:37:45 145.980
DUCHIFAT 1 23 Jan 23:38:33 23:41:40 20° 95° (E) 23:44:45 145.980
EO-79 23 Jan 23:43:31 23:47:20 31° 97° (E) 23:51:06 145.935-145.965
O/OREOS (USA 219) 23 Jan 23:44:36 23:49:05 70° 108° (ESE) 23:53:33 437.305
ESTCUBE 1 23 Jan 23:46:02 23:50:00 30° 263° (W) 23:53:59 437.505/2401.250
PRISM 23 Jan 23:47:56 23:51:21 26° 289° (WNW) 23:54:47 437.425
YUBILEINY 24 Jan 00:12:03 00:19:56 36° 286° (WNW) 00:27:50 435.215
AIST 2D 24 Jan 00:16:33 00:19:02 19° 289° (WNW) 00:21:30 435.315
POLYITAN 1 24 Jan 00:19:04 00:23:22 86° 105° (ESE) 00:27:38 437.675
BUGSAT 1 24 Jan 00:27:12 00:29:38 15° 94° (E) 00:32:03 437.445
NANOSAT C BR1 24 Jan 00:31:26 00:35:42 78° 284° (WNW) 00:39:56 145.865
SPROUT 24 Jan 00:37:33 00:41:23 33° 262° (W) 00:45:16 437.525
AO-91 24 Jan 00:40:41 00:43:57 18° 95° (E) 00:47:23 145.960
QB50P2 24 Jan 00:49:25 00:53:20 36° 288° (WNW) 00:57:14 145.880/145.840
NO-84 24 Jan 00:49:42 00:50:59 12° 235° (SW) 00:52:18 435.350 FM
UKube-1 24 Jan 00:53:59 00:56:55 18° 68° (ENE) 00:59:50 .
ISS 24 Jan 00:58:52 00:59:31 10° 23° (NNE) 01:00:10 437.550
Oscar 19 24 Jan 01:01:10 01:05:18 24° 96° (E) 01:09:24 437.125/150
50 SAT 24 Jan 01:03:27 01:06:07 27° 73° (ENE) 01:08:47 437.505
VELOX 1 24 Jan 01:06:54 01:10:46 30° 263° (W) 01:14:38 145.980
DX 1 24 Jan 01:11:45 01:15:55 50° 74° (ENE) 01:20:07 434.975-435.025
DUCHIFAT 1 24 Jan 01:13:37 01:17:17 28° 289° (WNW) 01:20:55 145.980
Gurwin Techsat 1B 24 Jan 01:14:05 01:18:23 24° 96° (E) 01:22:38 435.225
EO-79 24 Jan 01:19:48 01:22:49 19° 292° (WNW) 01:25:49 145.935-145.965
FALCONSAT 3 24 Jan 01:26:01 01:28:29 17° 151° (SSE) 01:30:58 435.103
O/OREOS (USA 219) 24 Jan 01:28:09 01:28:57 10° 304° (NW) 01:29:44 437.305
MOZHAYETS 4 24 Jan 01:54:17 01:58:01 25° 69° (ENE) 02:01:46
ITUPSAT 1 24 Jan 01:57:16 02:00:01 15° 65° (ENE) 02:02:47 437.325
BUGSAT 1 24 Jan 02:01:08 02:05:05 38° 287° (WNW) 02:08:59 437.445
nSIGHT-1 24 Jan 02:05:59 02:09:05 48° 40° (NE) 02:12:10 .
AO-91 24 Jan 02:15:57 02:20:24 43° 286° (WNW) 02:25:14 145.960
AO-7 24 Jan 02:20:41 02:25:54 18° 93° (E) 02:31:04 .
UKube-1 24 Jan 02:28:47 02:32:39 32° 262° (W) 02:36:31 .
BEESAT 24 Jan 02:32:41 02:37:01 37° 71° (ENE) 02:41:24 436.000
ISS 24 Jan 02:33:18 02:36:33 62° 40° (NE) 02:39:46 437.550
Oscar 19 24 Jan 02:40:00 02:44:37 34° 290° (WNW) 02:49:12 437.125/150
DX 1 24 Jan 02:50:57 02:52:21 11° 268° (W) 02:53:45 434.975-435.025
Gurwin Techsat 1B 24 Jan 02:53:32 02:58:19 35° 290° (WNW) 03:03:06 435.225
FALCONSAT 3 24 Jan 03:03:33 03:07:10 57° 164° (SSE) 03:10:47 435.103
MOZHAYETS 4 24 Jan 03:31:04 03:35:00 27° 264° (W) 03:38:59
ITUPSAT 1 24 Jan 03:32:46 03:37:22 50° 260° (W) 03:42:02 437.325
CUBESAT XI-V 24 Jan 03:42:33 03:47:15 90° 338° (NNW) 03:51:57 437.345
nSIGHT-1 24 Jan 03:43:36 03:44:54 12° 233° (SW) 03:46:12 .
ITAMSAT 1 24 Jan 03:53:19 03:58:25 55° 101° (E) 04:03:32 435.822/435.867
DOVE 4 24 Jan 04:09:22 04:12:43 20° 96° (E) 04:16:10 437.250
AO-7 24 Jan 04:11:00 04:19:23 82° 289° (WNW) 04:27:42 .
BEESAT 24 Jan 04:11:28 04:14:51 19° 265° (W) 04:18:16 436.000
SO-50 24 Jan 04:16:55 04:21:15 58° 116° (ESE) 04:25:41 436.795
KKS-1 24 Jan 04:33:42 04:37:51 43° 73° (ENE) 04:42:03 437.445
STARS 24 Jan 04:40:33 04:43:36 19° 68° (ENE) 04:46:40 437.465
FALCONSAT 3 24 Jan 04:42:30 04:46:12 87° 360° (N) 04:49:53 435.103
M-CUBED/EXP-1 PRIME 24 Jan 05:11:28 05:14:40 51° 105° (ESE) 05:17:49 437.505
XW-2C 24 Jan 05:22:59 05:24:54 14° 93° (E) 05:26:49 145.795 - 145.815
LilacSat-2 24 Jan 05:25:04 05:27:27 16° 94° (E) 05:29:50 437.200
ITAMSAT 1 24 Jan 05:34:15 05:37:23 16° 296° (WNW) 05:40:31 435.822/435.867
DOVE 4 24 Jan 05:46:23 05:50:22 32° 287° (WNW) 05:54:34 437.250
KAITUO 1B 24 Jan 05:46:53 05:49:31 19° 95° (E) 05:52:09 145.475/437.950
NUDT-PHONESAT 24 Jan 05:51:01 05:53:43 19° 95° (E) 05:56:24 437.300
CUTE-I 24 Jan 05:52:29 05:57:04 29° 97° (E) 06:01:39 437.470
XW-2F 24 Jan 05:54:27 05:57:50 32° 98° (E) 06:01:10 145.980 - 146.000
SO-50 24 Jan 05:59:31 06:02:04 15° 313° (NW) 06:04:40 436.795
RS-15 24 Jan 05:59:56 06:09:17 26° 102° (ESE) 06:18:34 29.354- 29.394
AO-7 24 Jan 06:06:10 06:10:51 17° 307° (NW) 06:15:34 .
XW-2D 24 Jan 06:07:08 06:10:50 57° 100° (E) 06:14:30 145.860 - 145.880
HO-68 24 Jan 06:11:12 06:16:48 24° 95° (E) 06:22:23 435.675
KKS-1 24 Jan 06:12:16 06:14:35 14° 267° (W) 06:16:53 437.445
STARS 24 Jan 06:15:47 06:19:40 32° 262° (W) 06:23:36 437.465
FALCONSAT 3 24 Jan 06:21:37 06:25:14 60° 195° (SSW) 06:28:51 435.103
XW-2B 24 Jan 06:24:52 06:28:37 84° 283° (WNW) 06:32:20 145.730 - 145.750
STRAND 1 24 Jan 06:29:59 06:34:43 41° 71° (ENE) 06:39:30 437.568
CUBEBUG 2 24 Jan 06:30:09 06:33:26 18° 93° (E) 06:36:41 437.445
FO-29 24 Jan 06:40:05 06:45:35 28° 69° (ENE) 06:50:35 435.910
SEEDS 24 Jan 06:55:28 06:59:08 29° 97° (E) 07:02:45 437.485
XW-2C 24 Jan 06:55:49 06:59:08 30° 287° (WNW) 07:02:25 145.795 - 145.815
LilacSat-2 24 Jan 06:58:32 07:01:41 26° 288° (WNW) 07:04:51 437.200
CUTE 1.7 + AOD 2 24 Jan 07:14:58 07:19:11 86° 285° (WNW) 07:23:22 437.475
KAITUO 1B 24 Jan 07:20:32 07:23:23 22° 289° (WNW) 07:26:13 145.475/437.950
NUDT-PHONESAT 24 Jan 07:24:40 07:27:25 20° 289° (WNW) 07:30:09 437.300
XW-2F 24 Jan 07:29:46 07:31:35 13° 292° (WNW) 07:33:24 145.980 - 146.000
CUTE-I 24 Jan 07:32:25 07:37:01 30° 291° (WNW) 07:41:37 437.470
HO-68 24 Jan 07:57:51 08:04:47 55° 290° (WNW) 08:11:43 435.675
PCSat 24 Jan 07:58:21 08:02:17 21° 106° (ESE) 08:06:14 145.827
AAUSAT CUBESAT 2 24 Jan 08:00:36 08:04:42 75° 100° (E) 08:08:47 437.432
FALCONSAT 3 24 Jan 08:01:21 08:03:56 18° 208° (SSW) 08:06:31 435.103
UWE-3 24 Jan 08:02:56 08:07:35 74° 283° (WNW) 08:12:07 435.000/436.395/437.385
BEESAT 3 24 Jan 08:03:05 08:06:35 30° 113° (ESE) 08:10:06 437.485
CUBEBUG 2 24 Jan 08:05:43 08:10:07 38° 287° (WNW) 08:14:26 437.445
TIGRISAT 24 Jan 08:06:45 08:08:31 12° 65° (ENE) 08:10:19 435.000
RS-15 24 Jan 08:08:10 08:20:31 79° 300° (WNW) 08:32:46 29.354- 29.394
STRAND 1 24 Jan 08:10:26 08:14:01 19° 266° (W) 08:17:38 437.568
ZACube-1 24 Jan 08:18:07 08:22:40 82° 102° (ESE) 08:27:05 437.345
XW-2A 24 Jan 08:19:32 08:22:51 65° 283° (WNW) 08:26:07 145.665 - 145.685
UNISAT 6 24 Jan 08:21:26 08:24:40 20° 68° (ENE) 08:27:58 437.425
AO-73 24 Jan 08:22:31 08:27:02 80° 102° (ESE) 08:31:25 145.935
FO-29 24 Jan 08:24:01 08:30:27 42° 260° (W) 08:36:13 435.910
YUBILEINY 24 Jan 08:30:22 08:35:47 18° 66° (ENE) 08:41:08 435.215
SEEDS 24 Jan 08:31:41 08:34:33 18° 291° (WNW) 08:37:25 437.485
Oscar 11 24 Jan 08:51:33 08:55:53 78° 282° (WNW) 09:00:09 .
BEESAT 2 24 Jan 09:00:14 09:03:49 33° 113° (ESE) 09:07:27 435.950
JUGNU 24 Jan 09:18:18 09:21:38 16° 173° (S) 09:24:58 437.505
Max Valier Satellite 24 Jan 09:28:27 09:31:36 26° 97° (E) 09:34:42 145.860
DELFI C3 24 Jan 09:36:21 09:40:14 57° 100° (E) 09:44:06 145.870
EO-88 24 Jan 09:38:13 09:41:03 21° 96° (E) 09:43:53 145.990 - 145.960
PCSat 24 Jan 09:40:08 09:45:17 45° 301° (WNW) 09:50:30 145.827
TIGRISAT 24 Jan 09:40:18 09:44:38 56° 260° (W) 09:49:06 435.000
BEESAT 3 24 Jan 09:41:09 09:44:06 20° 308° (NW) 09:47:05 437.485
UNISAT 6 24 Jan 09:57:08 10:01:06 32° 263° (W) 10:05:11 437.425
O/OREOS (USA 219) 24 Jan 09:57:36 10:02:06 79° 71° (ENE) 10:06:34 437.305
DUCHIFAT 1 24 Jan 10:30:00 10:30:17 10° 65° (ENE) 10:30:34 145.980
